Location: Malvern Link
(52.1333°N, 2.3000°W)
Time: 19:13:18
(UTC+00:00)

Cosmos 2098 Rocket - Pass Details

Date: 18 September 2020
Orbit: 366 x 1185 km, 82.9° (Epoch: 22 October)

Event Time Altitude Azimuth Distance (km) Brightness Sun altitude
Rises 20:50:27 0° 350° (N) 4,086 7.9 -22.9°
Reaches altitude 10° 20:53:20 10° 355° (N) 3,090 7.1 -23.3°
Maximum altitude 21:00:31 55° 72° (ENE) 1,275 4.3 -24.2°
Enters shadow 21:01:46 49° 109° (ESE) 1,341 4.3 -24.3°
